| time (UTC) | temp C | wind direction | speed KPH | gust KPH | rain 1hr cm | rain 24hr cm | rain mn cm | humidity % | barometer mb |
| 20260507073506 | 10 | 54 | 0.0 | 11.3 | 0.00 | 0.76 | 0.00 | 93 | 1014.3 |
| 20260507073006 | 10 | 38 | 0.0 | 12.9 | 0.00 | 0.76 | 0.00 | 93 | 1014.4 |
| 20260507072506 | 10 | 34 | 4.8 | 11.3 | 0.00 | 0.76 | 0.00 | 94 | 1014.3 |
| 20260507072006 | 10 | 33 | 0.0 | 6.4 | 0.00 | 0.76 | 0.00 | 95 | 1014.3 |
| 20260507071506 | 10 | 37 | 3.2 | 11.3 | 0.00 | 0.76 | 0.00 | 95 | 1014.2 |
| 20260507071005 | 10 | 44 | 4.8 | 8.0 | 0.00 | 0.76 | 0.00 | 95 | 1014.3 |
| 20260507070506 | 10 | 31 | 3.2 | 8.0 | 0.00 | 0.76 | 0.00 | 95 | 1014.3 |
| 20260507070009 | 10 | 26 | 6.4 | 16.1 | 0.00 | 0.76 | 0.00 | 96 | 1014.2 |
| 20260507065505 | 10 | 35 | 1.6 | 4.8 | 0.00 | 0.76 | 0.00 | 96 | 1014.2 |
| 20260507065006 | 9 | 41 | 0.0 | 6.4 | 0.00 | 0.76 | 0.00 | 96 | 1014.1 |
| 20260507064505 | 9 | 40 | 3.2 | 9.7 | 0.00 | 0.76 | 0.00 | 97 | 1014.0 |
| 20260507064005 | 9 | 30 | 1.6 | 12.9 | 0.00 | 0.76 | 0.00 | 97 | 1014.0 |
| 20260507063505 | 9 | 31 | 0.0 | 6.4 | 0.00 | 0.76 | 0.00 | 97 | 1013.9 |
| 20260507063005 | 9 | 37 | 0.0 | 0.0 | 0.00 | 0.76 | 0.00 | 97 | 1013.9 |
| 20260507062505 | 8 | 42 | 0.0 | 6.4 | 0.00 | 0.76 | 0.00 | 97 | 1013.9 |
| 20260507062005 | 8 | 8 | 0.0 | 3.2 | 0.00 | 0.76 | 0.00 | 97 | 1013.8 |
| 20260507061505 | 8 | 22 | 0.0 | 0.0 | 0.00 | 0.76 | 0.00 | 97 | 1013.7 |
| 20260507061005 | 8 | 0 | 0.0 | 3.2 | 0.00 | 0.76 | 0.00 | 97 | 1013.7 |
| 20260507060506 | 8 | 357 | 1.6 | 3.2 | 0.00 | 0.76 | 0.00 | 97 | 1013.6 |
| 20260507060006 | 8 | 8 | 0.0 | 6.4 | 0.00 | 0.76 | 0.00 | 97 | 1013.6 |
| 20260507055505 | 8 | 1 | 0.0 | 4.8 | 0.00 | 0.76 | 0.00 | 97 | 1013.6 |
| 20260507055007 | 8 | 353 | 0.0 | 4.8 | 0.00 | 0.76 | 0.00 | 98 | 1013.5 |
| 20260507054505 | 8 | 333 | 0.0 | 4.8 | 0.00 | 0.76 | 0.00 | 98 | 1013.5 |
| 20260507054006 | 7 | 333 | 0.0 | 6.4 | 0.00 | 0.76 | 0.00 | 98 | 1013.5 |
| 20260507053506 | 7 | 334 | 0.0 | 3.2 | 0.00 | 0.76 | 0.00 | 98 | 1013.4 |
| 20260507053006 | 7 | 333 | 0.0 | 0.0 | 0.00 | 0.76 | 0.00 | 97 | 1013.4 |
| 20260507052506 | 7 | 333 | 0.0 | 0.0 | 0.00 | 0.76 | 0.00 | 98 | 1013.4 |
| 20260507052006 | 7 | 333 | 0.0 | 0.0 | 0.00 | 0.76 | 0.00 | 97 | 1013.4 |
| 20260507051505 | 7 | 333 | 0.0 | 0.0 | 0.00 | 0.76 | 0.00 | 98 | 1013.3 |
| 20260507051006 | 7 | 333 | 0.0 | 0.0 | 0.00 | 0.76 | 0.00 | 98 | 1013.2 |
| 20260507050506 | 7 | 333 | 0.0 | 0.0 | 0.00 | 0.76 | 0.00 | 98 | 1013.1 |
| 20260507050006 | 7 | 333 | 0.0 | 0.0 | 0.00 | 0.76 | 0.00 | 98 | 1013.0 |
| 20260507045506 | 7 | 333 | 0.0 | 0.0 | 0.00 | 0.76 | 0.00 | 98 | 1012.9 |
| 20260507045007 | 7 | 353 | 0.0 | 0.0 | 0.00 | 0.76 | 0.00 | 98 | 1012.8 |
| 20260507044506 | 7 | 18 | 0.0 | 0.0 | 0.00 | 0.76 | 0.00 | 98 | 1012.8 |
| 20260507044006 | 7 | 39 | 0.0 | 1.6 | 0.00 | 0.76 | 0.00 | 98 | 1012.7 |
| 20260507043506 | 7 | 42 | 0.0 | 0.0 | 0.00 | 0.76 | 0.00 | 98 | 1012.8 |
| 20260507043006 | 7 | 42 | 0.0 | 0.0 | 0.00 | 0.76 | 0.00 | 98 | 1012.8 |
| 20260507042506 | 7 | 42 | 0.0 | 0.0 | 0.00 | 0.76 | 0.00 | 98 | 1012.7 |
| 20260507042005 | 7 | 42 | 0.0 | 0.0 | 0.00 | 0.76 | 0.00 | 98 | 1012.6 |
| 20260507041506 | 7 | 42 | 0.0 | 0.0 | 0.00 | 0.76 | 0.00 | 98 | 1012.6 |
| 20260507041006 | 7 | 42 | 0.0 | 0.0 | 0.00 | 0.76 | 0.00 | 98 | 1012.6 |
| 20260507040506 | 7 | 42 | 0.0 | 0.0 | 0.00 | 0.76 | 0.00 | 98 | 1012.5 |
| 20260507040006 | 7 | 42 | 0.0 | 0.0 | 0.00 | 0.76 | 0.00 | 98 | 1012.5 |
| 20260507035506 | 7 | 39 | 0.0 | 0.0 | 0.00 | 0.76 | 0.00 | 98 | 1012.5 |
| 20260507035007 | 7 | 37 | 0.0 | 3.2 | 0.00 | 0.76 | 0.00 | 98 | 1012.4 |
| 20260507034506 | 7 | 21 | 0.0 | 0.0 | 0.00 | 0.76 | 0.00 | 98 | 1012.4 |
| 20260507034006 | 7 | 0 | 0.0 | 0.0 | 0.00 | 0.76 | 0.00 | 98 | 1012.4 |
| 20260507033506 | 7 | 357 | 0.0 | 0.0 | 0.00 | 0.76 | 0.00 | 98 | 1012.3 |
| 20260507032506 | 7 | 26 | 1.6 | 4.8 | 0.00 | 0.76 | 0.00 | 98 | 1012.2 |
| 20260507032006 | 6 | 39 | 0.0 | 3.2 | 0.00 | 0.76 | 0.00 | 98 | 1012.2 |
| 20260507031506 | 6 | 42 | 0.0 | 0.0 | 0.00 | 0.76 | 0.00 | 98 | 1012.1 |
| 20260507031006 | 6 | 42 | 0.0 | 0.0 | 0.00 | 0.76 | 0.00 | 98 | 1012.1 |
| 20260507030506 | 6 | 42 | 0.0 | 0.0 | 0.00 | 0.76 | 0.00 | 98 | 1012.0 |
| 20260507030006 | 6 | 42 | 0.0 | 1.6 | 0.00 | 0.76 | 0.00 | 98 | 1012.0 |
| 20260507025506 | 6 | 41 | 0.0 | 0.0 | 0.00 | 0.76 | 0.00 | 97 | 1012.0 |
| 20260507025007 | 6 | 21 | 0.0 | 0.0 | 0.00 | 0.76 | 0.00 | 97 | 1011.9 |
| 20260507024506 | 5 | 328 | 0.0 | 1.6 | 0.00 | 0.76 | 0.00 | 97 | 1011.9 |
| 20260507024006 | 5 | 289 | 0.0 | 3.2 | 0.00 | 0.76 | 0.00 | 97 | 1011.8 |
| 20260507023506 | 5 | 281 | 0.0 | 0.0 | 0.00 | 0.76 | 0.00 | 97 | 1011.8 |
| 20260507023006 | 5 | 281 | 0.0 | 0.0 | 0.00 | 0.76 | 0.00 | 97 | 1011.8 |
| 20260507022505 | 5 | 281 | 0.0 | 1.6 | 0.00 | 0.76 | 0.00 | 97 | 1011.8 |
| 20260507022005 | 6 | 290 | 0.0 | 0.0 | 0.00 | 0.76 | 0.00 | 97 | 1011.7 |
| 20260507021505 | 5 | 321 | 0.0 | 0.0 | 0.00 | 0.76 | 0.00 | 97 | 1011.7 |
| 20260507021005 | 6 | 357 | 0.0 | 1.6 | 0.00 | 0.76 | 0.00 | 97 | 1011.6 |
| 20260507020505 | 6 | 15 | 0.0 | 0.0 | 0.00 | 0.76 | 0.00 | 97 | 1011.6 |
| 20260507020005 | 6 | 15 | 0.0 | 0.0 | 0.00 | 0.76 | 0.00 | 97 | 1011.6 |
| 20260507015506 | 6 | 15 | 0.0 | 0.0 | 0.00 | 0.76 | 0.00 | 97 | 1011.6 |
| 20260507015006 | 6 | 15 | 0.0 | 0.0 | 0.00 | 0.76 | 0.00 | 97 | 1011.6 |
| 20260507014505 | 6 | 15 | 0.0 | 0.0 | 0.00 | 0.76 | 0.00 | 97 | 1011.6 |
| 20260507014005 | 6 | 15 | 0.0 | 0.0 | 0.00 | 0.76 | 0.00 | 97 | 1011.6 |
| 20260507013505 | 6 | 15 | 0.0 | 0.0 | 0.00 | 0.76 | 0.00 | 97 | 1011.5 |
| 20260507013005 | 6 | 15 | 0.0 | 0.0 | 0.00 | 0.76 | 0.00 | 97 | 1011.5 |
| 20260507012505 | 6 | 15 | 0.0 | 0.0 | 0.00 | 0.76 | 0.00 | 97 | 1011.5 |
| 20260507012005 | 6 | 15 | 0.0 | 0.0 | 0.00 | 0.76 | 0.00 | 97 | 1011.4 |
| 20260507011506 | 6 | 15 | 0.0 | 0.0 | 0.00 | 0.76 | 0.00 | 97 | 1011.4 |
| 20260507011005 | 6 | 15 | 0.0 | 0.0 | 0.00 | 0.76 | 0.00 | 97 | 1011.3 |
| 20260507010506 | 6 | 15 | 0.0 | 0.0 | 0.00 | 0.76 | 0.00 | 97 | 1011.3 |
| 20260507010005 | 6 | 15 | 0.0 | 0.0 | 0.00 | 0.76 | 0.00 | 97 | 1011.3 |
| 20260507005506 | 6 | 15 | 0.0 | 0.0 | 0.00 | 0.76 | 0.00 | 97 | 1011.2 |
| 20260507005007 | 6 | 15 | 0.0 | 0.0 | 0.00 | 0.76 | 0.00 | 97 | 1011.2 |
| 20260507004506 | 6 | 15 | 0.0 | 0.0 | 0.00 | 0.76 | 0.00 | 97 | 1011.1 |
| 20260507004006 | 6 | 15 | 0.0 | 0.0 | 0.00 | 0.76 | 0.00 | 97 | 1011.1 |
| 20260507003506 | 6 | 15 | 0.0 | 0.0 | 0.00 | 0.76 | 0.00 | 97 | 1011.2 |
| 20260507003006 | 6 | 15 | 0.0 | 0.0 | 0.00 | 0.76 | 0.00 | 97 | 1011.1 |
| 20260507002506 | 6 | 15 | 0.0 | 0.0 | 0.00 | 0.76 | 0.00 | 97 | 1011.1 |
| 20260507002005 | 7 | 15 | 0.0 | 0.0 | 0.00 | 0.76 | 0.00 | 97 | 1011.1 |
| 20260507001506 | 7 | 15 | 0.0 | 0.0 | 0.00 | 0.76 | 0.00 | 97 | 1011.1 |
| 20260507001006 | 7 | 15 | 0.0 | 0.0 | 0.00 | 0.76 | 0.00 | 97 | 1011.1 |
| 20260507000505 | 7 | 15 | 0.0 | 0.0 | 0.00 | 0.76 | 0.00 | 97 | 1011.0 |
| 20260507000005 | 7 | 15 | 0.0 | 0.0 | 0.00 | 0.76 | 0.00 | 97 | 1011.0 |
| 20260506235506 | 7 | 15 | 0.0 | 0.0 | 0.00 | 0.76 | 0.00 | 97 | 1011.1 |
| 20260506235007 | 7 | 15 | 0.0 | 0.0 | 0.00 | 0.76 | 0.00 | 97 | 1011.0 |
| 20260506234506 | 7 | 6 | 0.0 | 3.2 | 0.00 | 0.76 | 0.00 | 97 | 1011.0 |
| 20260506234006 | 7 | 3 | 0.0 | 0.0 | 0.00 | 0.76 | 0.00 | 97 | 1011.0 |
| 20260506233506 | 7 | 3 | 0.0 | 0.0 | 0.00 | 0.76 | 0.00 | 97 | 1011.0 |
| 20260506233006 | 8 | 3 | 0.0 | 0.0 | 0.00 | 0.76 | 0.00 | 97 | 1011.0 |
| 20260506232505 | 8 | 3 | 0.0 | 0.0 | 0.00 | 0.76 | 0.00 | 97 | 1011.0 |
| 20260506232006 | 8 | 3 | 0.0 | 1.6 | 0.00 | 0.76 | 0.00 | 97 | 1010.9 |
| 20260506231506 | 8 | 3 | 0.0 | 0.0 | 0.00 | 0.76 | 0.00 | 96 | 1010.9 |
| 20260506231006 | 8 | 3 | 0.0 | 0.0 | 0.00 | 0.76 | 0.00 | 96 | 1010.9 |
| 20260506230506 | 8 | 3 | 0.0 | 0.0 | 0.00 | 0.76 | 0.00 | 96 | 1010.8 |
| 20260506230005 | 8 | 3 | 0.0 | 0.0 | 0.00 | 0.76 | 0.00 | 96 | 1010.8 |
| 20260506225505 | 8 | 3 | 0.0 | 0.0 | 0.00 | 0.76 | 0.00 | 96 | 1010.8 |
| 20260506225007 | 8 | 3 | 0.0 | 0.0 | 0.00 | 0.76 | 0.00 | 96 | 1010.8 |
| 20260506224505 | 8 | 3 | 0.0 | 0.0 | 0.00 | 0.76 | 0.00 | 96 | 1010.8 |
| 20260506224005 | 8 | 3 | 0.0 | 0.0 | 0.00 | 0.76 | 0.00 | 96 | 1010.8 |
| 20260506223505 | 8 | 3 | 0.0 | 0.0 | 0.00 | 0.76 | 0.00 | 96 | 1010.8 |
| 20260506223005 | 9 | 3 | 0.0 | 0.0 | 0.00 | 0.76 | 0.00 | 96 | 1010.8 |
| 20260506222505 | 9 | 3 | 0.0 | 0.0 | 0.00 | 0.76 | 0.00 | 96 | 1010.7 |
| 20260506222006 | 9 | 3 | 0.0 | 0.0 | 0.00 | 0.76 | 0.00 | 96 | 1010.7 |
| 20260506221506 | 9 | 3 | 0.0 | 0.0 | 0.00 | 0.76 | 0.00 | 96 | 1010.6 |
| 20260506221005 | 10 | 3 | 0.0 | 0.0 | 0.00 | 0.76 | 0.00 | 96 | 1010.6 |
| 20260506220505 | 10 | 3 | 0.0 | 0.0 | 0.00 | 0.76 | 0.00 | 96 | 1010.6 |
| 20260506220005 | 10 | 3 | 0.0 | 0.0 | 0.00 | 0.76 | 0.00 | 96 | 1010.6 |
| 20260506215505 | 10 | 3 | 0.0 | 0.0 | 0.00 | 0.76 | 0.76 | 96 | 1010.7 |
| 20260506215007 | 10 | 3 | 0.0 | 0.0 | 0.00 | 0.76 | 0.76 | 96 | 1010.6 |
| 20260506214505 | 10 | 3 | 0.0 | 0.0 | 0.00 | 0.76 | 0.76 | 96 | 1010.5 |
| 20260506214005 | 10 | 3 | 0.0 | 0.0 | 0.00 | 0.76 | 0.76 | 96 | 1010.5 |
| 20260506213505 | 10 | 3 | 0.0 | 0.0 | 0.00 | 0.76 | 0.76 | 96 | 1010.5 |
| 20260506213005 | 10 | 3 | 0.0 | 0.0 | 0.00 | 0.76 | 0.76 | 96 | 1010.4 |
| 20260506212505 | 10 | 3 | 0.0 | 0.0 | 0.00 | 0.76 | 0.76 | 96 | 1010.4 |
| 20260506212005 | 10 | 3 | 0.0 | 0.0 | 0.00 | 0.76 | 0.76 | 96 | 1010.4 |
| 20260506211505 | 10 | 3 | 0.0 | 0.0 | 0.00 | 0.76 | 0.76 | 96 | 1010.4 |
| 20260506211006 | 10 | 3 | 0.0 | 0.0 | 0.00 | 0.76 | 0.76 | 96 | 1010.4 |
| 20260506210505 | 10 | 3 | 0.0 | 0.0 | 0.00 | 0.76 | 0.76 | 96 | 1010.4 |
| 20260506210005 | 10 | 3 | 0.0 | 0.0 | 0.00 | 0.76 | 0.76 | 96 | 1010.3 |
| 20260506205505 | 10 | 3 | 0.0 | 0.0 | 0.00 | 0.76 | 0.76 | 96 | 1010.3 |
| 20260506205006 | 10 | 3 | 0.0 | 0.0 | 0.00 | 0.76 | 0.76 | 96 | 1010.2 |
| 20260506204505 | 10 | 3 | 0.0 | 0.0 | 0.00 | 0.76 | 0.76 | 96 | 1010.3 |
| 20260506204005 | 10 | 3 | 0.0 | 0.0 | 0.00 | 0.76 | 0.76 | 96 | 1010.3 |
| 20260506203505 | 10 | 3 | 0.0 | 0.0 | 0.00 | 0.76 | 0.76 | 96 | 1010.3 |
| 20260506203005 | 10 | 3 | 0.0 | 0.0 | 0.00 | 0.76 | 0.76 | 96 | 1010.3 |
| 20260506202505 | 10 | 3 | 0.0 | 0.0 | 0.00 | 0.76 | 0.76 | 96 | 1010.3 |
| 20260506202005 | 10 | 3 | 0.0 | 0.0 | 0.00 | 0.76 | 0.76 | 96 | 1010.3 |
| 20260506201505 | 10 | 3 | 0.0 | 0.0 | 0.00 | 0.76 | 0.76 | 96 | 1010.3 |
| 20260506201005 | 10 | 3 | 0.0 | 0.0 | 0.00 | 0.76 | 0.76 | 96 | 1010.3 |
| 20260506200505 | 10 | 3 | 0.0 | 0.0 | 0.00 | 0.76 | 0.76 | 96 | 1010.3 |
| 20260506200005 | 10 | 3 | 0.0 | 0.0 | 0.00 | 0.76 | 0.76 | 96 | 1010.2 |
| 20260506195506 | 10 | 3 | 0.0 | 0.0 | 0.00 | 0.76 | 0.76 | 96 | 1010.2 |
| 20260506195007 | 10 | 3 | 0.0 | 0.0 | 0.00 | 0.76 | 0.76 | 96 | 1010.2 |
| 20260506194506 | 10 | 3 | 0.0 | 0.0 | 0.00 | 0.76 | 0.76 | 96 | 1010.1 |
| 20260506194006 | 10 | 3 | 0.0 | 0.0 | 0.00 | 0.76 | 0.76 | 96 | 1010.1 |
| 20260506193506 | 10 | 3 | 0.0 | 0.0 | 0.00 | 0.76 | 0.76 | 96 | 1010.1 |
| 20260506193006 | 10 | 3 | 0.0 | 0.0 | 0.00 | 0.76 | 0.76 | 96 | 1010.0 |
| 20260506192506 | 10 | 3 | 0.0 | 0.0 | 0.00 | 0.76 | 0.76 | 96 | 1009.9 |
| 20260506192006 | 10 | 3 | 0.0 | 0.0 | 0.00 | 0.76 | 0.76 | 96 | 1009.9 |
| 20260506191506 | 10 | 3 | 0.0 | 0.0 | 0.00 | 0.76 | 0.76 | 95 | 1009.9 |
| 20260506190506 | 10 | 3 | 0.0 | 0.0 | 0.00 | 0.76 | 0.76 | 95 | 1009.8 |
| 20260506190006 | 10 | 3 | 0.0 | 0.0 | 0.00 | 0.76 | 0.76 | 95 | 1009.7 |
| 20260506185505 | 10 | 3 | 0.0 | 0.0 | 0.00 | 0.76 | 0.76 | 95 | 1009.7 |
| 20260506185006 | 10 | 3 | 0.0 | 0.0 | 0.00 | 0.76 | 0.76 | 95 | 1009.6 |
| 20260506184505 | 10 | 3 | 0.0 | 0.0 | 0.00 | 0.76 | 0.76 | 95 | 1009.6 |
| 20260506184005 | 11 | 3 | 0.0 | 0.0 | 0.00 | 0.76 | 0.76 | 95 | 1009.6 |
| 20260506183505 | 11 | 3 | 0.0 | 0.0 | 0.00 | 0.76 | 0.76 | 95 | 1009.5 |
| 20260506183006 | 11 | 3 | 0.0 | 0.0 | 0.00 | 0.76 | 0.76 | 95 | 1009.4 |
| 20260506182505 | 11 | 3 | 0.0 | 0.0 | 0.00 | 0.76 | 0.76 | 95 | 1009.3 |
| 20260506182005 | 11 | 3 | 0.0 | 0.0 | 0.00 | 0.76 | 0.76 | 95 | 1009.4 |
| 20260506181505 | 11 | 3 | 0.0 | 0.0 | 0.00 | 0.76 | 0.76 | 95 | 1009.3 |
| 20260506181005 | 11 | 3 | 0.0 | 0.0 | 0.00 | 0.76 | 0.76 | 95 | 1009.3 |
| 20260506180505 | 11 | 3 | 0.0 | 0.0 | 0.03 | 0.76 | 0.76 | 95 | 1009.3 |
| 20260506180006 | 11 | 3 | 0.0 | 0.0 | 0.03 | 0.76 | 0.76 | 95 | 1009.2 |
| 20260506175505 | 11 | 3 | 0.0 | 0.0 | 0.03 | 0.76 | 0.76 | 95 | 1009.2 |
| 20260506175006 | 11 | 3 | 0.0 | 0.0 | 0.03 | 0.76 | 0.76 | 95 | 1009.2 |
| 20260506174505 | 11 | 3 | 0.0 | 0.0 | 0.03 | 0.76 | 0.76 | 95 | 1009.2 |
| 20260506174005 | 11 | 3 | 0.0 | 0.0 | 0.03 | 0.76 | 0.76 | 95 | 1009.2 |
| 20260506173505 | 11 | 3 | 0.0 | 0.0 | 0.03 | 0.76 | 0.76 | 95 | 1009.1 |
| 20260506173005 | 11 | 3 | 0.0 | 0.0 | 0.03 | 0.76 | 0.76 | 95 | 1009.2 |
| 20260506172505 | 11 | 3 | 0.0 | 0.0 | 0.03 | 0.76 | 0.76 | 95 | 1009.1 |
| 20260506172005 | 11 | 1 | 0.0 | 0.0 | 0.05 | 0.76 | 0.76 | 95 | 1009.1 |
| 20260506171505 | 11 | 346 | 0.0 | 0.0 | 0.05 | 0.76 | 0.76 | 95 | 1009.0 |
| 20260506171005 | 11 | 330 | 0.0 | 3.2 | 0.05 | 0.76 | 0.76 | 95 | 1009.0 |
| 20260506170505 | 11 | 315 | 0.0 | 0.0 | 0.05 | 0.74 | 0.74 | 94 | 1009.0 |
| 20260506170006 | 11 | 315 | 0.0 | 0.0 | 0.05 | 0.74 | 0.74 | 94 | 1009.0 |
| 20260506165505 | 11 | 323 | 0.0 | 0.0 | 0.05 | 0.74 | 0.74 | 94 | 1009.0 |
| 20260506165007 | 11 | 317 | 0.0 | 0.0 | 0.08 | 0.74 | 0.74 | 94 | 1008.9 |
| 20260506164505 | 11 | 312 | 0.0 | 6.4 | 0.08 | 0.74 | 0.74 | 94 | 1009.0 |
| 20260506164005 | 11 | 299 | 0.0 | 0.0 | 0.10 | 0.74 | 0.74 | 94 | 1009.0 |
| 20260506163505 | 11 | 299 | 0.0 | 0.0 | 0.10 | 0.74 | 0.74 | 94 | 1009.0 |
| 20260506163005 | 11 | 299 | 0.0 | 0.0 | 0.10 | 0.74 | 0.74 | 94 | 1009.0 |
| 20260506162505 | 11 | 330 | 0.0 | 3.2 | 0.10 | 0.74 | 0.74 | 94 | 1009.0 |
| 20260506162005 | 11 | 354 | 0.0 | 0.0 | 0.10 | 0.71 | 0.71 | 94 | 1009.0 |
| 20260506161505 | 11 | 11 | 1.6 | 3.2 | 0.10 | 0.71 | 0.71 | 94 | 1009.0 |
| 20260506161005 | 11 | 14 | 0.0 | 0.0 | 0.13 | 0.71 | 0.71 | 94 | 1009.1 |
| 20260506160505 | 10 | 356 | 0.0 | 1.6 | 0.10 | 0.69 | 0.69 | 94 | 1009.0 |
| 20260506160006 | 10 | 1 | 1.6 | 4.8 | 0.13 | 0.69 | 0.69 | 94 | 1009.1 |
| 20260506155506 | 10 | 20 | 0.0 | 3.2 | 0.13 | 0.69 | 0.69 | 94 | 1009.1 |
| 20260506155007 | 10 | 42 | 0.0 | 1.6 | 0.10 | 0.66 | 0.66 | 93 | 1009.1 |
| 20260506154506 | 10 | 57 | 0.0 | 4.8 | 0.13 | 0.66 | 0.66 | 94 | 1009.1 |
| 20260506154006 | 10 | 26 | 0.0 | 4.8 | 0.10 | 0.64 | 0.64 | 94 | 1009.2 |
| 20260506153506 | 10 | 10 | 0.0 | 0.0 | 0.10 | 0.64 | 0.64 | 93 | 1009.1 |
| 20260506153006 | 10 | 353 | 0.0 | 6.4 | 0.10 | 0.64 | 0.64 | 93 | 1009.2 |
| 20260506152506 | 10 | 339 | 1.6 | 4.8 | 0.13 | 0.64 | 0.64 | 93 | 1009.2 |
| 20260506152006 | 10 | 351 | 0.0 | 3.2 | 0.10 | 0.61 | 0.61 | 93 | 1009.2 |
| 20260506151506 | 10 | 6 | 0.0 | 3.2 | 0.13 | 0.61 | 0.61 | 93 | 1009.2 |
| 20260506151006 | 10 | 14 | 0.0 | 6.4 | 0.10 | 0.58 | 0.58 | 93 | 1009.1 |
| 20260506150506 | 10 | 13 | 0.0 | 6.4 | 0.10 | 0.58 | 0.58 | 93 | 1009.2 |
| 20260506150006 | 10 | 1 | 0.0 | 8.0 | 0.08 | 0.56 | 0.56 | 93 | 1009.1 |
| 20260506145506 | 10 | 0 | 1.6 | 6.4 | 0.10 | 0.56 | 0.56 | 92 | 1009.1 |
| 20260506145007 | 10 | 15 | 0.0 | 4.8 | 0.10 | 0.56 | 0.56 | 93 | 1009.1 |
| 20260506144506 | 10 | 41 | 3.2 | 4.8 | 0.10 | 0.53 | 0.53 | 93 | 1009.0 |
| 20260506144006 | 10 | 47 | 0.0 | 6.4 | 0.10 | 0.53 | 0.53 | 93 | 1009.1 |
| 20260506143506 | 10 | 61 | 1.6 | 8.0 | 0.10 | 0.53 | 0.53 | 92 | 1009.0 |
| 20260506143006 | 11 | 13 | 3.2 | 6.4 | 0.13 | 0.53 | 0.53 | 93 | 1009.0 |
| 20260506142506 | 10 | 16 | 0.0 | 3.2 | 0.10 | 0.51 | 0.51 | 92 | 1008.9 |
| 20260506142006 | 10 | 19 | 0.0 | 4.8 | 0.13 | 0.51 | 0.51 | 92 | 1008.9 |
| 20260506141505 | 10 | 21 | 1.6 | 3.2 | 0.10 | 0.48 | 0.48 | 92 | 1009.0 |
| 20260506141005 | 11 | 21 | 3.2 | 8.0 | 0.10 | 0.48 | 0.48 | 92 | 1009.0 |
| 20260506140505 | 10 | 12 | 0.0 | 8.0 | 0.13 | 0.48 | 0.48 | 92 | 1009.0 |
| 20260506140005 | 11 | 23 | 3.2 | 3.2 | 0.13 | 0.48 | 0.48 | 92 | 1009.0 |
| 20260506135505 | 11 | 50 | 0.0 | 1.6 | 0.10 | 0.46 | 0.46 | 92 | 1009.0 |
| 20260506135006 | 11 | 65 | 1.6 | 3.2 | 0.13 | 0.46 | 0.46 | 92 | 1009.0 |
| 20260506134505 | 11 | 78 | 0.0 | 0.0 | 0.10 | 0.43 | 0.43 | 91 | 1008.9 |
| 20260506134005 | 11 | 32 | 0.0 | 4.8 | 0.10 | 0.43 | 0.43 | 91 | 1009.0 |
| 20260506133505 | 11 | 22 | 0.0 | 6.4 | 0.10 | 0.43 | 0.43 | 91 | 1009.0 |
| 20260506133005 | 11 | 22 | 1.6 | 4.8 | 0.10 | 0.41 | 0.41 | 91 | 1009.0 |
| 20260506132505 | 11 | 28 | 1.6 | 3.2 | 0.10 | 0.41 | 0.41 | 91 | 1009.0 |
| 20260506132005 | 11 | 37 | 0.0 | 4.8 | 0.08 | 0.38 | 0.38 | 90 | 1009.0 |
| 20260506131505 | 11 | 25 | 0.0 | 4.8 | 0.10 | 0.38 | 0.38 | 91 | 1008.9 |
| 20260506131005 | 11 | 24 | 3.2 | 6.4 | 0.10 | 0.38 | 0.38 | 91 | 1008.9 |
| 20260506130505 | 11 | 7 | 0.0 | 4.8 | 0.10 | 0.36 | 0.36 | 91 | 1008.8 |
| 20260506130005 | 11 | 352 | 0.0 | 6.4 | 0.10 | 0.36 | 0.36 | 91 | 1008.8 |
| 20260506125505 | 11 | 3 | 0.0 | 4.8 | 0.13 | 0.36 | 0.36 | 91 | 1008.8 |
| 20260506125006 | 11 | 337 | 0.0 | 6.4 | 0.10 | 0.33 | 0.33 | 91 | 1008.8 |
| 20260506124505 | 11 | 324 | 0.0 | 6.4 | 0.13 | 0.33 | 0.33 | 91 | 1008.8 |
| 20260506124005 | 11 | 322 | 3.2 | 8.0 | 0.13 | 0.33 | 0.33 | 90 | 1008.8 |
| 20260506123505 | 11 | 334 | 0.0 | 0.0 | 0.15 | 0.33 | 0.33 | 90 | 1008.8 |
| 20260506123005 | 11 | 349 | 0.0 | 3.2 | 0.13 | 0.30 | 0.30 | 90 | 1008.8 |
| 20260506122505 | 11 | 9 | 0.0 | 3.2 | 0.15 | 0.30 | 0.30 | 90 | 1008.7 |
| 20260506122006 | 11 | 2 | 3.2 | 14.5 | 0.15 | 0.30 | 0.30 | 89 | 1008.7 |
| 20260506121506 | 11 | 355 | 1.6 | 3.2 | 0.13 | 0.28 | 0.28 | 89 | 1008.7 |
| 20260506121006 | 11 | 357 | 1.6 | 6.4 | 0.13 | 0.28 | 0.28 | 89 | 1008.7 |
| 20260506120506 | 11 | 1 | 1.6 | 3.2 | 0.13 | 0.25 | 0.25 | 89 | 1008.6 |
| 20260506120005 | 11 | 13 | 3.2 | 4.8 | 0.13 | 0.25 | 0.25 | 89 | 1008.6 |
| 20260506115505 | 11 | 16 | 0.0 | 1.6 | 0.10 | 0.23 | 0.23 | 89 | 1008.6 |
| 20260506115006 | 11 | 21 | 3.2 | 6.4 | 0.10 | 0.23 | 0.23 | 88 | 1008.5 |
| 20260506114505 | 11 | 14 | 1.6 | 3.2 | 0.10 | 0.20 | 0.20 | 88 | 1008.5 |
| 20260506114005 | 11 | 13 | 1.6 | 6.4 | 0.10 | 0.20 | 0.20 | 88 | 1008.5 |
| 20260506113505 | 11 | 21 | 3.2 | 8.0 | 0.08 | 0.18 | 0.18 | 88 | 1008.5 |
| 20260506113005 | 11 | 13 | 3.2 | 4.8 | 0.08 | 0.18 | 0.18 | 88 | 1008.5 |
| 20260506112505 | 11 | 28 | 3.2 | 8.0 | 0.08 | 0.15 | 0.15 | 88 | 1008.5 |
| 20260506112005 | 11 | 36 | 1.6 | 8.0 | 0.08 | 0.15 | 0.15 | 88 | 1008.5 |
| 20260506111505 | 11 | 357 | 1.6 | 4.8 | 0.08 | 0.15 | 0.15 | 87 | 1008.5 |
| 20260506111005 | 11 | 333 | 0.0 | 8.0 | 0.08 | 0.15 | 0.15 | 87 | 1008.4 |
| 20260506110505 | 11 | 331 | 0.0 | 3.2 | 0.05 | 0.13 | 0.13 | 87 | 1008.5 |
| 20260506110005 | 11 | 330 | 0.0 | 0.0 | 0.08 | 0.13 | 0.13 | 87 | 1008.5 |
| 20260506105505 | 11 | 343 | 0.0 | 3.2 | 0.08 | 0.13 | 0.13 | 86 | 1008.5 |
| 20260506105006 | 11 | 346 | 1.6 | 3.2 | 0.08 | 0.13 | 0.13 | 86 | 1008.4 |
| 20260506104505 | 11 | 342 | 0.0 | 3.2 | 0.05 | 0.10 | 0.10 | 86 | 1008.5 |
| 20260506104005 | 11 | 349 | 0.0 | 3.2 | 0.05 | 0.10 | 0.10 | 85 | 1008.5 |
| 20260506103505 | 11 | 353 | 0.0 | 6.4 | 0.08 | 0.10 | 0.10 | 85 | 1008.4 |
| 20260506103005 | 11 | 357 | 0.0 | 6.4 | 0.08 | 0.10 | 0.10 | 85 | 1008.4 |
| 20260506102505 | 11 | 0 | 3.2 | 6.4 | 0.05 | 0.08 | 0.08 | 85 | 1008.4 |
| 20260506102005 | 11 | 17 | 0.0 | 4.8 | 0.05 | 0.08 | 0.08 | 85 | 1008.4 |
| 20260506101505 | 10 | 19 | 3.2 | 8.0 | 0.08 | 0.08 | 0.08 | 84 | 1008.4 |
| 20260506101005 | 10 | 29 | 4.8 | 9.7 | 0.08 | 0.08 | 0.08 | 83 | 1008.4 |
| 20260506100505 | 11 | 31 | 1.6 | 8.0 | 0.08 | 0.08 | 0.08 | 84 | 1008.3 |
| 20260506100005 | 11 | 27 | 1.6 | 8.0 | 0.05 | 0.05 | 0.05 | 83 | 1008.4 |
| 20260506095505 | 11 | 31 | 4.8 | 14.5 | 0.05 | 0.05 | 0.05 | 83 | 1008.4 |
| 20260506095006 | 11 | 36 | 0.0 | 4.8 | 0.05 | 0.05 | 0.05 | 83 | 1008.3 |
| 20260506094505 | 11 | 34 | 3.2 | 12.9 | 0.05 | 0.05 | 0.05 | 82 | 1008.3 |
| 20260506094005 | 11 | 31 | 4.8 | 12.9 | 0.05 | 0.05 | 0.05 | 81 | 1008.3 |
| 20260506093505 | 11 | 24 | 3.2 | 11.3 | 0.03 | 0.03 | 0.03 | 81 | 1008.3 |
| 20260506093005 | 11 | 22 | 4.8 | 9.7 | 0.03 | 0.03 | 0.03 | 80 | 1008.2 |
| 20260506092505 | 11 | 20 | 6.4 | 11.3 | 0.03 | 0.03 | 0.03 | 79 | 1008.2 |
| 20260506092005 | 11 | 30 | 4.8 | 12.9 | 0.03 | 0.03 | 0.03 | 76 | 1008.1 |
| 20260506091505 | 12 | 354 | 0.0 | 4.8 | 0.00 | 0.00 | 0.00 | 78 | 1008.1 |
| 20260506090505 | 12 | 24 | 4.8 | 14.5 | 0.00 | 0.00 | 0.00 | 73 | 1008.1 |
| 20260506090005 | 12 | 29 | 1.6 | 4.8 | 0.00 | 0.00 | 0.00 | 74 | 1008.1 |
| 20260506085505 | 12 | 27 | 6.4 | 14.5 | 0.00 | 0.00 | 0.00 | 73 | 1008.1 |
| 20260506085006 | 12 | 32 | 6.4 | 12.9 | 0.00 | 0.00 | 0.00 | 70 | 1008.0 |
| 20260506084505 | 12 | 53 | 3.2 | 12.9 | 0.00 | 0.00 | 0.00 | 72 | 1008.0 |
| 20260506084005 | 11 | 27 | 4.8 | 12.9 | 0.00 | 0.00 | 0.00 | 71 | 1007.9 |
| 20260506083505 | 11 | 33 | 3.2 | 11.3 | 0.00 | 0.00 | 0.00 | 71 | 1007.9 |
| 20260506083005 | 11 | 18 | 1.6 | 16.1 | 0.00 | 0.00 | 0.00 | 72 | 1007.8 |
| 20260506082505 | 11 | 17 | 1.6 | 11.3 | 0.00 | 0.00 | 0.00 | 73 | 1007.8 |
| 20260506082005 | 11 | 22 | 4.8 | 12.9 | 0.00 | 0.00 | 0.00 | 71 | 1007.7 |
| 20260506081505 | 11 | 23 | 4.8 | 9.7 | 0.00 | 0.00 | 0.00 | 71 | 1007.6 |
| 20260506081006 | 11 | 29 | 1.6 | 12.9 | 0.00 | 0.00 | 0.00 | 73 | 1007.5 |
| 20260506080505 | 11 | 23 | 1.6 | 11.3 | 0.00 | 0.00 | 0.00 | 73 | 1007.6 |